Location: Fornova de Taro
(44.7000°N, 10.1000°E)
Time: 21:27:02
(UTC+00:00)

Nadezhda 1 Rocket - Pass Details

Date: 26 May 2022
Orbit: 940 x 1006 km, 83.0° (Epoch: 02 July)

Event Time Altitude Azimuth Distance (km) Brightness Sun altitude
Exits shadow 02:15:04 16° 212° (SSW) 2,334 5.4 -12.6°
Maximum altitude 02:19:58 50° 283° (WNW) 1,243 4.4 -12.0°
Drops below altitude 10° 02:26:06 10° 359° (N) 2,747 7.0 -11.3°
Sets 02:28:42 0° 4° (N) 3,689 7.9 -11.0°
